Total_Precipitation_Accumulation
1.41 1.24 2.06 2.23 2.00 1.76 1.67 1.60 1.63 1.64 1.64 1.68 1.51 1.27 1.12 1.04 0.99 0.91 0.78 0.70 0.78 0.80 0.76 0.73 0.71 0.70 0.67 0.66 0.65 0.68 0.76 0.87 0.91 0.94 0.99 1.04 0.97 0.99 1.26 1.58 1.75 2.03 1.68
1.15 1.23 2.13 2.31 2.02 1.67 1.53 1.53 1.65 1.64 1.66 1.59 1.52 1.32 1.18 1.05 0.95 0.85 0.70 0.61 0.63 0.68 0.66 0.71 0.76 0.78 0.79 0.82 0.86 0.89 0.88 0.86 0.97 1.06 1.20 1.26 1.16 1.12 1.13 1.43 1.57 1.87 1.70
1.19 1.29 1.87 2.38 2.11 1.80 1.59 1.58 1.69 1.64 1.70 1.58 1.51 1.33 1.18 1.03 0.96 0.87 0.73 0.68 0.70 0.66 0.63 0.68 0.82 0.84 0.89 0.90 0.95 1.02 0.99 0.95 1.05 1.23 1.60 2.21 1.66 1.29 1.27 1.37 1.45 1.41 1.54
1.12 1.19 1.65 2.40 2.08 1.90 1.79 1.78 1.71 1.69 1.76 1.57 1.44 1.28 1.16 1.07 1.04 1.01 1.06 1.08 0.92 0.74 0.69 0.69 0.83 0.85 0.83 0.89 0.98 0.97 0.94 0.99 1.18 1.27 1.67 2.25 2.07 1.44 1.43 1.51 1.55 1.35 1.41
1.14 1.28 1.93 2.39 2.05 1.88 1.84 1.82 1.73 1.79 1.78 1.58 1.36 1.16 1.09 1.12 1.23 1.30 1.29 1.16 0.94 0.78 0.73 0.74 0.81 0.86 0.82 0.79 0.90 0.95 0.97 1.04 1.18 1.20 1.62 2.15 2.36 1.84 1.49 1.50 1.54 1.41 1.42
1.34 1.35 1.94 2.34 2.10 1.90 1.86 1.79 1.73 1.73 1.76 1.66 1.37 1.17 1.10 1.12 1.13 1.16 1.19 1.11 0.94 0.82 0.72 0.78 0.86 0.86 0.83 0.83 0.86 0.94 0.97 1.04 1.00 1.21 1.65 1.99 2.27 1.83 1.39 1.38 1.55 1.53 1.54
1.28 1.34 1.69 2.12 1.97 1.75 1.71 1.74 1.77 1.76 1.73 1.67 1.41 1.27 1.25 1.19 1.07 1.07 1.07 1.01 0.86 0.76 0.72 0.79 0.85 0.87 0.84 0.88 0.85 0.84 0.92 0.84 0.75 1.11 1.48 1.84 1.85 1.63 1.40 1.45 1.63 1.62 1.70
1.27 1.25 1.45 1.86 1.94 1.76 1.67 1.63 1.68 1.70 1.72 1.64 1.34 1.22 1.18 1.17 1.10 1.03 1.02 0.98 0.86 0.85 0.84 0.80 0.81 0.86 0.89 0.88 0.86 0.85 0.86 0.70 0.60 0.86 1.20 1.60 1.74 1.67 1.52 1.49 1.63 1.72 1.85
1.42 1.35 1.39 1.60 1.74 1.96 1.95 1.81 1.75 1.68 1.65 1.60 1.35 1.23 1.17 1.05 0.93 0.88 0.87 0.84 0.84 0.90 0.86 0.79 0.77 0.77 0.82 0.87 0.87 0.88 0.85 0.70 0.65 0.84 0.87 1.33 1.64 1.71 1.59 1.55 1.61 1.71 1.89
1.48 1.41 1.33 1.42 1.46 1.61 1.78 1.92 1.91 1.81 1.72 1.65 1.42 1.30 1.22 1.01 0.86 0.83 0.75 0.76 0.80 0.93 1.01 0.92 0.85 0.84 0.86 0.92 0.93 0.90 0.87 0.68 0.62 0.70 0.90 1.09 1.60 1.70 1.57 1.59 1.60 1.62 1.75
1.33 1.23 1.15 1.21 1.34 1.46 1.68 1.86 1.98 1.91 1.84 1.70 1.48 1.37 1.24 0.93 0.79 0.78 0.73 0.89 0.89 0.95 1.03 1.05 1.07 1.05 0.96 0.91 0.96 0.88 0.69 0.63 0.76 0.81 0.90 1.12 1.65 1.78 1.69 1.62 1.65 1.60 1.56
1.32 1.18 0.98 1.00 1.10 1.22 1.35 1.77 1.79 1.56 1.49 1.39 1.51 1.39 1.21 1.12 0.97 0.68 0.73 0.95 1.10 1.13 1.09 1.05 1.15 1.02 0.80 0.68 0.74 0.68 0.52 0.59 0.72 0.76 0.80 1.29 1.73 1.75 1.58 1.55 1.63 1.53 1.43
1.19 1.11 0.95 0.88 0.86 0.86 0.95 1.22 1.39 1.42 1.47 1.37 1.31 1.24 1.21 1.09 0.90 0.75 0.78 0.77 0.81 0.88 0.82 0.84 0.83 0.70 0.63 0.65 0.67 0.55 0.49 0.58 0.67 0.77 0.90 1.45 1.85 1.82 1.57 1.47 1.54 1.49 1.44
0.98 0.99 0.92 0.75 0.67 0.62 0.65 0.72 0.85 1.03 1.16 1.18 1.02 0.94 1.00 1.02 0.91 0.76 0.75 0.73 0.72 0.76 0.88 0.91 0.91 0.84 0.78 0.75 0.70 0.71 0.69 0.72 0.75 0.84 1.07 1.40 1.88 1.90 1.75 1.63 1.62 1.60 1.56
0.91 0.92 0.82 0.67 0.66 0.62 0.61 0.61 0.59 0.80 0.98 1.09 1.10 0.95 0.90 0.91 0.90 0.83 0.70 0.69 0.65 0.68 0.76 0.81 0.85 0.91 0.97 0.92 0.89 0.93 0.96 0.91 0.82 0.80 0.99 1.29 1.79 2.19 2.20 2.06 1.86 1.81 1.77
0.75 0.85 0.79 0.74 0.76 0.69 0.60 0.58 0.58 0.68 0.80 0.85 1.02 1.03 0.95 0.87 0.82 0.85 0.80 0.79 0.78 0.77 0.77 0.76 0.76 0.91 0.97 1.01 0.99 0.97 0.95 0.85 0.83 0.91 1.07 1.15 1.24 1.64 2.30 2.42 2.30 2.14 2.01
0.67 0.69 0.66 0.66 0.73 0.73 0.71 0.66 0.64 0.74 0.78 0.82 0.87 0.87 0.93 0.84 0.76 0.82 0.85 0.84 0.84 0.85 0.84 0.86 0.88 0.98 0.99 1.07 1.11 0.98 0.92 0.87 0.83 0.89 0.98 1.08 0.91 0.96 1.51 2.15 2.38 2.25 2.21
0.60 0.59 0.61 0.56 0.65 0.76 0.81 0.81 0.83 0.86 0.89 0.96 0.91 0.85 0.84 0.79 0.75 0.84 0.87 0.90 0.95 0.87 0.85 0.94 1.01 1.10 1.10 1.18 1.20 1.03 0.86 0.95 0.89 0.89 1.02 1.06 1.03 0.96 1.11 1.37 1.67 1.90 2.26
0.59 0.59 0.63 0.61 0.66 0.75 0.80 0.89 0.97 1.04 1.11 1.23 1.18 1.13 1.05 0.93 0.93 1.00 1.05 1.07 1.09 1.10 1.03 0.94 0.99 1.12 1.24 1.29 1.15 1.06 0.95 0.96 0.98 0.95 1.13 1.16 1.14 1.13 1.19 1.11 1.15 1.35 1.79
0.67 0.61 0.65 0.72 0.77 0.88 1.03 1.20 1.38 1.49 1.64 1.83 1.76 1.62 1.41 1.23 1.20 1.31 1.30 1.23 1.30 1.41 1.45 1.25 1.31 1.28 1.25 1.35 1.19 1.12 1.10 1.04 1.04 1.11 1.16 1.29 1.42 1.27 1.27 1.20 1.10 0.95 1.22
0.65 0.61 0.60 0.65 0.73 0.84 1.04 1.33 1.72 1.94 2.07 2.07 2.08 1.98 1.75 1.52 1.53 1.72 1.70 1.66 1.67 1.67 1.64 1.58 1.74 1.69 1.43 1.35 1.55 1.54 1.38 1.21 1.16 1.15 1.21 1.45 1.57 1.49 1.51 1.43 1.31 1.14 1.03
0.51 0.50 0.61 0.62 0.68 0.81 1.07 1.34 1.65 1.99 2.06 2.06 2.07 2.03 1.91 1.76 1.76 1.81 2.02 2.12 2.09 2.22 2.20 2.02 2.17 2.20 1.83 1.58 1.86 2.19 1.91 1.68 1.28 1.19 1.32 1.38 1.48 1.57 1.61 1.48 1.33 1.22 1.18
0.41 0.35 0.46 0.55 0.68 0.95 1.27 1.53 1.70 1.96 2.04 2.08 2.04 2.06 2.08 2.02 1.92 1.95 2.07 2.23 2.24 2.33 2.45 2.53 2.46 2.57 2.39 1.98 1.85 2.16 2.11 1.96 1.75 1.40 1.34 1.43 1.59 1.64 1.67 1.65 1.48 1.24 1.21
0.35 0.30 0.34 0.43 0.66 1.03 1.37 1.58 1.81 2.17 2.22 2.13 2.14 2.12 2.13 2.15 2.11 2.20 2.23 2.35 2.35 2.36 2.48 2.58 2.53 2.69 2.77 2.38 2.08 1.87 1.72 1.73 1.87 1.71 1.49 1.45 1.60 1.63 1.63 1.65 1.68 1.51 1.34
0.39 0.39 0.40 0.51 0.74 1.04 1.27 1.54 1.89 2.12 2.20 2.28 2.17 2.13 2.13 2.19 2.21 2.26 2.34 2.52 2.49 2.47 2.46 2.67 2.71 2.81 2.74 2.66 2.51 2.34 2.17 1.93 1.61 1.74 1.80 1.66 1.55 1.45 1.50 1.63 1.79 1.73 1.56
0.40 0.45 0.55 0.70 0.84 1.07 1.28 1.53 1.72 1.93 2.04 2.14 2.20 2.11 2.09 2.15 2.25 2.14 2.08 2.25 2.29 2.33 2.33 2.52 2.69 2.82 2.80 2.82 2.74 2.45 2.40 2.28 1.95 1.91 1.78 1.68 1.69 1.50 1.43 1.52 1.57 1.57 1.59